{"data":{"norad_id":68835,"intl_designator":"2026-092A","name":"PRSC-E03","alt_names":[],"object_type":"PAYLOAD","status":"ACTIVE","operator":null,"country":"PAKI","launch_date":"2026-04-25","launch_site_code":"TAISC","launch_vehicle":null,"mission":null,"orbit_class":"UNKNOWN","rcs_meters":null,"size_class":null,"mass_kg":null,"dimensions":null,"purposes":["earth_obs"],"wikipedia_slug":null,"has_3d_model":false,"image_url":null,"decayed_at":null,"tle_current":{"epoch":"2026-09-20T03:32:31.204896Z","epoch_age_seconds":45919,"freshness":"FRESH","line1":"1 68835U 26092A   26263.14758339  .00001597  00000+0  11169-3 0  9990","line2":"2 68835  38.0006 249.5348 0003070  43.8611 316.2394 15.07068260 22284","mean_motion":15.0706826,"eccentricity":0.000307,"inclination_deg":38.0006,"raan_deg":249.5348,"arg_perigee_deg":43.8611,"mean_anomaly_deg":316.2394,"bstar":0.00011169,"rev_number":2228,"period_min":95.549753001898,"perigee_km":543.03874066601,"apogee_km":547.28964759921,"semimajor_km":6923.3011941326,"source":"CELESTRAK","updated_at":"2026-09-20T09:00:34.133920Z"}}}